Date_and_time,latitude,longitude,wind_speed,RelWindDirFrom,WindDirFrom,air_pressure,air_temperature,relative_humidity,Temp,platform_speed_wrt_ground,air_pressure_at_mean_sea_level,platform_orientation
2019-02-03 23:30,50.63044,-96.98077,12.1,16.4,342,991.99,-21.6,67,0.32,0.0,1022.39,90.0
2019-02-03 23:40,50.63045,-96.980785,12.8,16.8,344,992.12,-21.7,67,0.32,0.0,1022.53,90.0
2019-02-03 23:50,50.6304416666667,-96.98077,12.8,16.3,342,992.30,-21.7,67,0.32,0.0,1022.73,90.0
2019-02-04 00:00,50.6304433333333,-96.9807716666667,13.4,18.7,345,992.25,-21.7,68,0.32,0.0,1022.68,90.0
2019-02-04 00:00,50.6304433333333,-96.9807716666667,13.9,14.2,346,992.16,-21.6,68,0.32,0.0,1022.58,270.0
2019-02-04 00:10,50.630445,-96.9807733333333,13.7,18.8,347,992.13,-21.6,68,0.32,0.0,1022.55,270.0
2019-02-04 00:20,50.630445,-96.980775,14.6,20.4,349,991.99,-21.5,68,0.32,0.0,1022.41,270.0
2019-02-04 00:30,50.6304533333333,-96.9807933333333,14.8,19.1,352,992.04,-21.5,69,0.32,0.0,1022.45,270.0
2019-02-04 00:40,50.630445,-96.9807816666667,16.0,20.6,354,992.00,-21.4,69,0.31,0.0,1022.40,270.0
2019-02-04 00:50,50.630445,-96.9807766666667,16.2,20.6,354,992.10,-21.3,70,0.31,0.0,1022.50,270.0
2019-02-04 01:00,50.6304433333333,-96.9807783333333,17.0,21.9,355,992.00,-21.2,70,0.32,0.0,1022.40,270.0
2019-02-04 01:10,50.6304433333333,-96.980775,16.4,20.0,351,992.26,-21.2,70,0.31,0.0,1022.66,270.0
2019-02-04 01:20,50.630445,-96.9807716666667,16.0,20.7,352,992.19,-21.1,70,0.31,0.0,1022.59,270.0
2019-02-04 01:30,50.630435,-96.9807666666667,15.8,21.7,352,992.07,-21.1,70,0.31,0.0,1022.47,270.0
2019-02-04 01:40,50.6304533333333,-96.98077,16.3,21.4,351,991.99,-21.2,71,0.31,0.0,1022.38,270.0
2019-02-04 01:50,50.6304383333333,-96.980775,16.5,22.2,351,992.09,-21.2,71,0.31,0.0,1022.48,270.0
2019-02-04 02:00,50.6304416666667,-96.980775,16.1,21.1,349,992.29,-21.2,71,0.31,0.0,1022.69,0.0
2019-02-04 02:10,50.6304433333333,-96.980775,16.2,20.7,347,992.37,-21.1,71,0.31,0.0,1022.77,0.0
2019-02-04 02:20,50.6304433333333,-96.9807733333333,17.0,21.4,350,992.49,-21.2,71,0.31,0.0,1022.89,0.0
2019-02-04 02:30,50.6304433333333,-96.9807716666667,15.3,20.1,347,992.55,-21.3,71,0.31,0.0,1022.95,0.0
2019-02-04 02:40,50.6304433333333,-96.9807683333333,15.3,19.5,348,992.59,-21.5,70,0.31,0.0,1023.00,0.0
2019-02-04 02:50,50.6304416666667,-96.9807666666667,15.5,21.1,350,992.76,-21.6,71,0.31,0.0,1023.17,0.0
2019-02-04 03:00,50.6304416666667,-96.9807666666667,16.0,21.8,350,992.84,-21.6,71,0.31,0.0,1023.25,90.0
2019-02-04 03:10,50.6304433333333,-96.9807666666667,14.7,20.8,347,992.92,-21.7,71,0.31,0.0,1023.34,90.0
2019-02-04 03:20,50.6304383333333,-96.9807666666667,16.2,22.0,350,993.00,-21.8,71,0.31,0.0,1023.42,90.0
2019-02-04 03:30,50.6304583333333,-96.9807683333333,14.2,19.4,344,993.02,-21.7,71,0.31,0.0,1023.45,90.0
2019-02-04 03:40,50.6304383333333,-96.9807533333333,14.3,19.3,346,993.06,-21.9,71,0.31,0.0,1023.50,90.0
2019-02-04 03:50,50.630465,-96.9807983333333,14.9,20.1,348,993.07,-21.9,71,0.30,0.0,1023.51,90.0
2019-02-04 04:00,50.6304583333333,-96.9807783333333,13.6,21.0,343,993.11,-21.9,71,0.30,0.0,1023.55,360.0
2019-02-04 04:10,50.6304433333333,-96.980745,13.3,19.3,343,993.24,-22.0,71,0.30,0.0,1023.69,360.0
2019-02-04 04:20,50.6304433333333,-96.9807566666667,13.1,18.3,346,993.35,-22.0,71,0.30,0.0,1023.81,360.0
2019-02-04 04:30,50.6304466666667,-96.9807633333333,13.7,19.2,347,993.50,-22.0,71,0.30,0.0,1023.98,360.0
2019-02-04 04:40,50.6304466666667,-96.9807616666667,13.8,19.6,345,993.72,-21.9,71,0.30,0.0,1024.20,360.0
2019-02-04 04:50,50.6304466666667,-96.9807616666667,13.6,18.4,343,993.87,-22.0,71,0.30,0.0,1024.37,360.0
2019-02-04 05:00,50.630475,-96.9807933333333,14.5,21.0,345,993.79,-22.0,71,0.30,0.0,1024.29,336.3
2019-02-04 05:10,50.6304516666667,-96.98078,16.4,20.1,350,993.66,-22.0,71,0.30,0.0,1024.16,336.3
2019-02-04 05:20,50.6304466666667,-96.9807716666667,16.4,22.4,350,993.60,-21.9,72,0.30,0.0,1024.09,336.3
2019-02-04 05:30,50.6304433333333,-96.9807683333333,15.5,21.7,354,993.77,-21.9,72,0.30,0.0,1024.28,336.3
2019-02-04 05:40,50.6304433333333,-96.98077,16.2,21.8,347,993.85,-21.8,72,0.30,0.0,1024.36,336.3
2019-02-04 05:50,50.6304433333333,-96.9807683333333,16.9,22.1,350,993.55,-21.8,72,0.30,0.0,1024.05,336.3
2019-02-04 06:00,50.6304333333333,-96.9808033333333,16.2,21.0,352,993.72,-21.8,73,0.30,0.0,1024.22,248.5
2019-02-04 06:10,50.6304266666667,-96.9807683333333,15.5,21.6,355,993.91,-21.7,73,0.30,0.0,1024.41,248.5
2019-02-04 06:20,50.6304366666667,-96.9807816666667,17.0,23.9,354,993.86,-21.6,73,0.30,0.0,1024.35,248.5
2019-02-04 06:30,50.63044,-96.9807833333333,16.3,24.3,352,993.89,-21.6,74,0.30,0.0,1024.38,248.5
2019-02-04 06:40,50.6304416666667,-96.9807833333333,17.3,23.9,354,993.71,-21.6,74,0.30,0.0,1024.20,248.5
2019-02-04 06:50,50.6304466666667,-96.9807816666667,17.8,22.9,357,993.59,-21.5,75,0.30,0.0,1024.07,248.5
2019-02-04 07:00,50.6304366666667,-96.9807683333333,19.5,25.1,357,993.29,-21.4,76,0.30,0.0,1023.76,152.6
2019-02-04 07:10,50.63045,-96.980775,19.5,24.6,359,993.13,-21.3,77,0.30,0.0,1023.57,152.6
2019-02-04 07:20,50.6304333333333,-96.9807716666667,18.9,24.9,2,993.33,-21.0,77,0.30,0.0,1023.77,152.6
2019-02-04 07:30,50.6304466666667,-96.980775,20.8,28.1,3,993.11,-21.0,77,0.30,0.0,1023.54,152.6
2019-02-04 07:40,50.6304433333333,-96.9807733333333,21.3,27.4,2,992.92,-21.1,77,0.30,0.0,1023.34,152.6
2019-02-04 07:50,50.6304533333333,-96.98078,19.6,27.3,1,992.99,-21.1,77,0.30,0.0,1023.41,152.6
2019-02-04 08:00,50.630435,-96.9807466666667,21.5,27.4,360,992.93,-21.2,77,0.30,0.0,1023.35,137.5
2019-02-04 08:10,50.6304383333333,-96.98075,21.3,26.7,1,992.85,-21.2,77,0.30,0.0,1023.28,137.5
2019-02-04 08:20,50.6304416666667,-96.980755,20.6,26.9,0,993.00,-21.3,77,0.30,0.0,1023.43,137.5
2019-02-04 08:30,50.63045,-96.9807816666667,20.7,26.4,359,993.08,-21.4,77,0.30,0.0,1023.51,137.5
2019-02-04 08:40,50.63045,-96.9807716666667,19.6,25.1,358,993.17,-21.4,77,0.29,0.0,1023.61,137.5
2019-02-04 08:50,50.6304583333333,-96.980765,20.3,26.1,359,993.19,-21.5,77,0.29,0.0,1023.63,137.5
2019-02-04 09:00,50.6304433333333,-96.9807666666667,19.7,25.4,359,993.40,-21.5,77,0.29,0.0,1023.83,68.5
2019-02-04 09:10,50.6304466666667,-96.9807733333333,19.0,25.4,360,993.48,-21.6,77,0.29,0.0,1023.91,68.5
2019-02-04 09:20,50.6304516666667,-96.9807666666667,18.5,24.0,359,993.46,-21.6,77,0.29,0.0,1023.88,68.5
2019-02-04 09:30,50.630455,-96.9807633333333,19.6,25.3,357,993.33,-21.7,77,0.29,0.0,1023.76,68.5
2019-02-04 09:40,50.630455,-96.9807616666667,18.9,23.8,357,993.31,-21.9,76,0.29,0.0,1023.76,68.5
2019-02-04 09:50,50.6304583333333,-96.98077,21.5,26.0,356,992.97,-22.1,76,0.29,0.0,1023.43,68.5
2019-02-04 10:00,50.6304533333333,-96.9807716666667,19.7,26.3,356,993.13,-22.3,76,0.29,0.0,1023.60,336.5
2019-02-04 10:10,50.630455,-96.98077,18.3,23.7,356,993.37,-22.4,76,0.29,0.0,1023.86,336.5
2019-02-04 10:20,50.630455,-96.98077,19.0,24.9,356,993.38,-22.5,76,0.29,0.0,1023.87,336.5
2019-02-04 10:30,50.63046,-96.9807733333333,19.2,23.9,357,993.48,-22.5,76,0.29,0.0,1023.98,336.5
2019-02-04 10:40,50.630475,-96.9807733333333,18.5,23.8,356,993.44,-22.6,76,0.29,0.0,1023.95,336.5
2019-02-04 10:50,50.6304683333333,-96.9807716666667,19.0,23.9,355,993.29,-22.7,76,0.29,0.0,1023.81,336.5
2019-02-04 11:00,50.6304616666667,-96.9807733333333,18.9,27.7,355,993.33,-22.7,76,0.29,0.0,1023.85,335.7
2019-02-04 11:10,50.63046,-96.9807733333333,22.2,27.3,354,992.98,-22.8,76,0.29,0.0,1023.49,335.7
2019-02-04 11:20,50.6304616666667,-96.9807933333333,20.2,28.2,355,993.08,-22.8,76,0.29,0.0,1023.61,335.7
2019-02-04 11:30,50.630455,-96.9807783333333,21.3,27.8,354,993.08,-22.8,76,0.29,0.0,1023.62,335.7
2019-02-04 11:40,50.6304416666667,-96.9807766666667,20.9,26.4,355,993.36,-22.9,75,0.29,0.0,1023.93,335.7
2019-02-04 11:50,50.63045,-96.9807666666667,20.2,27.8,356,993.63,-22.8,75,0.29,0.0,1024.21,335.7
2019-02-04 12:00,50.63046,-96.9807566666667,19.8,27.0,354,993.77,-22.9,75,0.29,0.0,1024.36,360.0
2019-02-04 12:10,50.6304616666667,-96.9807583333333,18.7,24.9,355,993.90,-22.9,75,0.29,0.0,1024.51,360.0
2019-02-04 12:20,50.63046,-96.9807633333333,18.9,24.7,355,994.12,-23.0,75,0.29,0.0,1024.75,360.0
2019-02-04 12:30,50.6304416666667,-96.9807633333333,17.4,22.5,355,994.35,-23.1,75,0.28,0.0,1025.00,360.0
2019-02-04 12:40,50.6304433333333,-96.980765,18.0,24.3,355,994.56,-23.2,74,0.28,0.0,1025.22,360.0
2019-02-04 12:50,50.6304483333333,-96.9807633333333,16.7,21.9,353,994.82,-23.3,74,0.28,0.0,1025.49,360.0
2019-02-04 13:00,50.6304483333333,-96.9807666666667,17.3,22.8,351,994.77,-23.4,74,0.28,0.0,1025.45,131.7
2019-02-04 13:10,50.6304483333333,-96.9807666666667,18.4,24.8,351,994.72,-23.5,73,0.28,0.0,1025.41,131.7
2019-02-04 13:20,50.6304633333333,-96.9807683333333,17.4,23.5,347,994.88,-23.6,73,0.28,0.0,1025.58,131.7
2019-02-04 13:30,50.6304516666667,-96.980775,18.5,24.0,350,995.02,-23.7,72,0.28,0.0,1025.73,131.7
2019-02-04 13:40,50.63045,-96.98077,18.0,24.2,351,995.24,-23.7,72,0.28,0.0,1025.96,131.7
2019-02-04 13:50,50.6304483333333,-96.9807716666667,17.3,23.1,350,995.37,-23.7,72,0.28,0.0,1026.10,131.7
2019-02-04 14:00,50.6304516666667,-96.9807716666667,17.8,23.8,352,995.52,-23.6,72,0.28,0.0,1026.25,360.0
2019-02-04 14:10,50.6304633333333,-96.98077,17.8,24.8,353,995.60,-23.5,72,0.28,0.0,1026.33,360.0
2019-02-04 14:20,50.630455,-96.9807666666667,18.1,24.2,354,995.61,-23.4,73,0.28,0.0,1026.34,360.0
2019-02-04 14:30,50.6304583333333,-96.9807666666667,18.1,24.4,352,995.78,-23.4,73,0.28,0.0,1026.52,360.0
2019-02-04 14:40,50.6304566666667,-96.98076,17.0,23.3,354,996.02,-23.3,73,0.28,0.0,1026.77,360.0
2019-02-04 14:50,50.6304533333333,-96.9807583333333,16.6,21.8,353,996.13,-23.4,73,0.28,0.0,1026.89,360.0
2019-02-04 15:00,50.6304516666667,-96.9807583333333,17.3,22.7,351,996.23,-23.4,74,0.28,0.0,1027.00,142.0
2019-02-04 15:10,50.6304533333333,-96.98076,15.6,20.1,351,996.44,-23.3,74,0.27,0.0,1027.23,142.0
2019-02-04 15:20,50.6304533333333,-96.9807566666667,16.2,21.9,350,996.51,-23.3,74,0.27,0.0,1027.30,142.0
2019-02-04 15:30,50.6304533333333,-96.9807583333333,15.5,21.6,348,996.64,-23.3,74,0.27,0.0,1027.43,142.0
2019-02-04 15:40,50.6304533333333,-96.9807583333333,15.1,20.9,348,996.74,-23.2,74,0.27,0.0,1027.53,142.0
2019-02-04 15:50,50.6304533333333,-96.9807583333333,13.5,17.7,348,996.88,-23.2,73,0.27,0.0,1027.67,142.0
2019-02-04 16:00,50.6304533333333,-96.98076,15.6,21.2,346,996.81,-23.2,73,0.27,0.0,1027.59,48.3
2019-02-04 16:10,50.63044,-96.98076,14.3,18.6,347,996.90,-23.1,73,0.27,0.0,1027.67,48.3
2019-02-04 16:20,50.6304466666667,-96.9807633333333,13.9,19.0,342,997.00,-23.0,72,0.27,0.0,1027.77,48.3
2019-02-04 16:30,50.6304483333333,-96.9807633333333,12.2,16.5,342,997.15,-22.9,72,0.27,0.0,1027.92,48.3
2019-02-04 16:40,50.63045,-96.980765,12.4,16.6,340,997.26,-23.0,72,0.27,0.0,1028.03,48.3
2019-02-04 16:50,50.6304483333333,-96.980765,12.0,15.8,342,997.29,-22.9,72,0.27,0.0,1028.06,48.3
2019-02-04 17:00,50.6304483333333,-96.9807666666667,13.8,18.1,341,997.23,-22.9,72,0.27,0.0,1027.99,167.4
2019-02-04 17:10,50.63045,-96.9807683333333,14.1,20.0,341,997.24,-22.8,71,0.27,0.0,1028.00,167.4
2019-02-04 17:20,50.6304483333333,-96.9807683333333,16.0,20.8,342,997.16,-22.8,71,0.27,0.0,1027.92,167.4
2019-02-04 17:30,50.6304466666667,-96.9807683333333,15.0,20.9,342,997.26,-22.6,71,0.27,0.0,1028.00,167.4
2019-02-04 17:40,50.6304466666667,-96.9807683333333,17.2,22.6,344,997.17,-22.5,70,0.27,0.0,1027.90,167.4
2019-02-04 17:50,50.6304466666667,-96.9807683333333,16.1,22.0,345,997.23,-22.4,69,0.27,0.0,1027.95,167.4
2019-02-04 18:00,50.6304433333333,-96.980765,16.3,20.4,347,997.19,-22.2,69,0.27,0.0,1027.89,360.0
2019-02-04 18:10,50.6304666666667,-96.9808016666667,15.2,20.1,349,997.23,-22.1,69,0.27,0.0,1027.92,360.0
2019-02-04 18:20,50.6304483333333,-96.9807733333333,14.1,18.8,344,997.25,-22.0,69,0.27,0.0,1027.93,360.0
2019-02-04 18:30,50.63045,-96.9807733333333,15.1,20.0,345,997.18,-22.0,68,0.27,0.0,1027.86,360.0
2019-02-04 18:40,50.63045,-96.9807733333333,15.4,19.4,344,997.12,-22.1,68,0.27,0.0,1027.80,360.0
2019-02-04 18:50,50.63045,-96.9807816666667,13.6,18.5,344,997.19,-21.9,67,0.27,0.0,1027.86,360.0
2019-02-04 19:00,50.630455,-96.980775,15.3,19.8,345,997.10,-21.9,66,0.27,0.0,1027.77,270.0
2019-02-04 19:10,50.6304316666667,-96.9807633333333,14.8,18.7,344,997.07,-22.0,66,0.27,0.0,1027.74,270.0
2019-02-04 19:20,50.6304416666667,-96.9807783333333,15.0,20.1,340,996.93,-22.0,66,0.27,0.0,1027.59,270.0
2019-02-04 19:30,50.630445,-96.9807783333333,13.3,19.2,340,997.01,-22.1,67,0.27,0.0,1027.66,270.0
2019-02-04 19:40,50.6304466666667,-96.980775,13.6,17.9,342,997.02,-22.1,67,0.27,0.0,1027.67,270.0
2019-02-04 19:50,50.6304466666667,-96.980775,14.4,19.0,347,997.03,-22.2,67,0.27,0.0,1027.68,270.0
2019-02-04 20:00,50.6304483333333,-96.9807733333333,12.5,19.3,340,997.00,-22.2,68,0.28,0.0,1027.64,270.0
2019-02-04 20:10,50.6304466666667,-96.98077,13.3,19.4,344,997.12,-22.4,68,0.28,0.0,1027.77,270.0
2019-02-04 20:20,50.6304466666667,-96.9807716666667,13.9,19.0,345,997.14,-22.4,68,0.28,0.0,1027.78,270.0
2019-02-04 20:30,50.6304483333333,-96.98077,13.9,19.1,345,997.14,-22.3,67,0.28,0.0,1027.79,270.0
2019-02-04 20:40,50.6304433333333,-96.9807666666667,12.6,18.2,333,997.01,-22.3,67,0.28,0.0,1027.64,270.0
2019-02-04 20:50,50.6304483333333,-96.980765,14.5,19.3,343,996.98,-22.3,66,0.28,0.0,1027.61,270.0
2019-02-04 21:00,50.63045,-96.9807683333333,14.3,18.7,345,996.96,-22.5,65,0.28,0.0,1027.61,360.0
2019-02-04 21:10,50.6304566666667,-96.9807616666667,13.6,18.0,346,997.02,-22.4,65,0.28,0.0,1027.66,360.0
2019-02-04 21:20,50.6304466666667,-96.98076,15.9,21.9,347,996.99,-22.5,64,0.28,0.0,1027.64,360.0
2019-02-04 21:30,50.63045,-96.9807633333333,15.8,22.3,350,997.11,-22.7,64,0.28,0.0,1027.78,360.0
2019-02-04 21:40,50.6304183333333,-96.9807366666667,15.8,21.0,348,997.23,-22.8,64,0.28,0.0,1027.92,360.0
2019-02-04 21:50,50.630435,-96.9807566666667,16.3,21.1,349,997.33,-23.0,63,0.28,0.0,1028.03,360.0
2019-02-04 22:00,50.6304583333333,-96.9807783333333,13.4,16.8,348,997.56,-23.1,63,0.28,0.0,1028.29,305.3
2019-02-04 22:10,50.630455,-96.980775,13.4,19.0,342,997.61,-23.2,63,0.28,0.0,1028.34,305.3
2019-02-04 22:20,50.6304533333333,-96.9807716666667,14.1,17.4,342,997.75,-23.3,63,0.28,0.0,1028.49,305.3
2019-02-04 22:30,50.63045,-96.9807733333333,11.1,14.3,344,998.12,-23.2,63,0.28,0.0,1028.86,305.3
2019-02-04 22:40,50.63045,-96.9807733333333,11.9,15.3,342,998.10,-23.1,63,0.28,0.0,1028.84,305.3
2019-02-04 22:50,50.6304483333333,-96.9807733333333,11.6,16.0,341,998.20,-23.1,63,0.29,0.0,1028.96,305.3
2019-02-04 23:00,50.6304466666667,-96.9807733333333,13.7,17.8,345,998.20,-23.3,63,0.29,0.0,1028.96,0.0
2019-02-04 23:10,50.6304466666667,-96.9807733333333,12.4,16.6,348,998.24,-23.5,64,0.29,0.0,1029.02,0.0
2019-02-04 23:20,50.630445,-96.9807716666667,13.6,19.4,346,998.18,-23.6,64,0.29,0.0,1028.98,0.0
2019-02-04 23:30,50.630445,-96.9807716666667,14.1,17.8,346,998.21,-23.8,64,0.29,0.0,1029.02,0.0
2019-02-04 23:40,50.630445,-96.9807716666667,12.4,17.5,345,998.34,-23.9,64,0.29,0.0,1029.18,0.0
